CW9300 Weather Reports


Display with metric or nautical units.
time (UTC)temp
F
wind
direction
speed
MPH
gust
MPH
rain 1hr
in
rain 24hr
in
rain mn
in
humidity
%
barometer
mb
20260509074834 51 123 0.0 0.0 0.00 0.00 0.00 82 1010.0
20260509073842 51 123 0.0 0.0 0.00 0.00 0.00 82 1010.0
20260509072817 51 123 0.0 0.0 0.00 0.00 0.00 81 1009.9
20260509071800 51 173 0.0 0.0 0.00 0.00 0.00 81 1010.3
20260509070813 51 54 0.0 0.0 0.00 0.00 0.00 81 1010.3
20260509065834 51 61 1.0 4.0 0.00 0.00 0.00 81 1010.3
20260509064803 51 281 0.0 2.0 0.00 0.00 0.00 81 1010.4
20260509060407 52 119 0.0 0.0 0.00 0.00 0.00 78 1011.2
20260509055354 52 138 0.0 1.0 0.00 0.00 0.00 78 1011.3
20260509054320 52 92 0.0 0.0 0.00 0.00 0.00 77 1011.4
20260509053318 52 92 0.0 0.0 0.00 0.00 0.00 76 1011.4
20260509052337 52 97 0.0 0.0 0.00 0.00 0.00 75 1011.5
20260509051320 52 74 0.0 0.0 0.00 0.00 0.00 75 1011.7
20260509050253 53 333 0.0 0.0 0.00 0.00 0.00 74 1011.9
20260509045241 53 333 0.0 0.0 0.00 0.00 0.00 73 1012.0
20260509043052 53 333 0.0 0.0 0.00 0.00 0.00 72 1012.1
20260509042038 54 333 0.0 0.0 0.00 0.00 0.00 72 1012.0
20260509041036 54 333 0.0 0.0 0.00 0.00 0.00 71 1012.0
20260509040006 54 0 0.0 0.0 0.00 0.00 0.00 71 1012.0
20260509034941 54 0 0.0 0.0 0.00 0.00 0.00 70 1012.1
20260509033942 54 0 0.0 0.0 0.00 0.00 0.00 70 1011.8
20260509032959 54 0 0.0 0.0 0.00 0.00 0.00 69 1011.8
20260509031934 55 0 0.0 0.0 0.00 0.00 0.00 68 1011.6
20260509030946 55 0 0.0 0.0 0.00 0.00 0.00 68 1011.7
20260509025949 55 0 0.0 0.0 0.00 0.00 0.00 67 1011.6
20260509024932 55 288 0.0 2.0 0.00 0.00 0.00 67 1011.7
20260509023904 55 42 0.0 1.0 0.00 0.00 0.00 66 1011.5
20260509021804 56 95 0.0 0.0 0.00 0.00 0.00 65 1012.0
20260509012322 57 328 0.0 0.0 0.00 0.00 0.00 63 1011.7
20260509011340 57 338 0.0 0.0 0.00 0.00 0.00 63 1011.5
20260509010338 57 342 0.0 0.0 0.00 0.00 0.00 62 1011.4
20260509005340 57 40 0.0 1.0 0.00 0.00 0.00 61 1011.3
20260509004347 58 40 0.0 1.0 0.00 0.00 0.00 61 1011.2
20260509003323 58 40 0.0 2.0 0.00 0.00 0.00 60 1011.1
20260509002317 59 275 0.0 0.0 0.00 0.00 0.00 59 1011.1
20260509001342 59 275 0.0 0.0 0.00 0.00 0.00 57 1011.2
20260509000400 60 275 0.0 4.0 0.00 0.00 0.00 56 1011.2
20260508235422 60 284 1.0 1.0 0.00 0.00 0.00 55 1011.2
20260508234418 60 253 1.0 6.0 0.00 0.00 0.00 53 1011.2
20260508233401 61 22 2.0 11.0 0.00 0.00 0.00 54 1011.1
20260508231250 61 248 2.0 9.0 0.00 0.00 0.00 53 1011.0
20260508230229 61 194 3.0 12.0 0.00 0.00 0.00 52 1010.9
20260508225227 62 281 4.0 12.0 0.00 0.00 0.00 51 1010.8
20260508223050 63 319 4.0 12.0 0.00 0.00 0.00 51 1010.9
20260508222055 62 197 4.0 12.0 0.00 0.00 0.00 52 1010.9
20260508221114 61 248 3.0 10.0 0.00 0.00 0.00 52 1011.0
20260508220117 61 195 5.0 15.0 0.00 0.00 0.00 52 1011.1
20260508213912 61 259 4.0 11.0 0.00 0.00 0.00 53 1010.8
20260508212935 61 211 1.0 8.0 0.00 0.00 0.00 54 1010.6
20260508211918 62 347 2.0 8.0 0.00 0.00 0.00 55 1010.7
20260508210918 62 242 2.0 13.0 0.00 0.00 0.00 53 1010.7
20260508205917 62 207 4.0 13.0 0.00 0.00 0.00 52 1010.7
20260508204930 62 234 6.0 13.0 0.00 0.00 0.00 52 1010.9
20260508203913 61 265 6.0 18.0 0.00 0.00 0.00 55 1011.0
20260508202850 60 227 8.0 18.0 0.00 0.00 0.00 55 1011.1
20260508201844 60 260 5.0 29.0 0.00 0.00 0.00 58 1011.1
20260508200848 60 202 10.0 29.0 0.00 0.00 0.00 57 1011.0
20260508195843 63 246 7.0 19.0 0.00 0.00 0.00 45 1010.7
20260508194903 63 178 6.0 14.0 0.00 0.00 0.00 44 1010.6
20260508193832 63 172 4.0 13.0 0.00 0.00 0.00 44 1010.9
20260508192852 63 265 7.0 15.0 0.00 0.00 0.00 43 1010.9
20260508191828 63 244 6.0 15.0 0.00 0.00 0.00 42 1011.0
20260508190820 64 254 4.0 13.0 0.00 0.00 0.00 41 1011.0
20260508185833 64 182 8.0 13.0 0.00 0.00 0.00 39 1010.9
20260508184858 64 273 6.0 12.0 0.00 0.00 0.00 38 1010.9
20260508182639 66 265 7.0 14.0 0.00 0.00 0.00 37 1010.5
20260508181639 67 309 5.0 11.0 0.00 0.00 0.00 38 1010.9
20260508175534 66 307 6.0 15.0 0.00 0.00 0.00 40 1011.2
20260508174501 64 164 5.0 15.0 0.00 0.00 0.00 41 1011.6
20260508173520 63 211 4.0 13.0 0.00 0.00 0.00 42 1011.7
20260508172446 64 256 8.0 15.0 0.00 0.00 0.00 40 1011.7
20260508171450 65 254 8.0 23.0 0.00 0.00 0.00 39 1011.5
20260508170446 64 217 9.0 23.0 0.00 0.00 0.00 39 1011.7
20260508165501 64 265 6.0 17.0 0.00 0.00 0.00 41 1011.8
20260508164426 63 221 6.0 17.0 0.00 0.00 0.00 43 1012.0
20260508162220 63 254 7.0 15.0 0.00 0.00 0.00 42 1012.4
20260508160135 62 212 8.0 17.0 0.00 0.00 0.00 43 1012.5
20260508155153 62 189 8.0 17.0 0.00 0.00 0.00 43 1012.5
20260508154208 62 187 7.0 15.0 0.00 0.00 0.00 45 1012.7
20260508153139 61 215 8.0 19.0 0.00 0.00 0.00 44 1012.7
20260508152203 61 210 8.0 19.0 0.00 0.00 0.00 46 1012.7
20260508150100 60 250 7.0 16.0 0.00 0.00 0.00 46 1012.5
20260508145118 59 262 6.0 14.0 0.00 0.00 0.00 48 1012.6
20260508142930 59 196 6.0 14.0 0.00 0.00 0.00 49 1012.8
20260508141938 59 254 4.0 13.0 0.00 0.00 0.00 49 1012.8
20260508135812 57 237 4.0 11.0 0.00 0.00 0.00 51 1012.8
20260508133627 54 161 1.0 7.0 0.00 0.00 0.00 55 1013.1
20260508131507 50 215 0.0 0.0 0.00 0.00 0.00 68 1013.4
20260508130522 48 293 0.0 2.0 0.00 0.00 0.00 70 1013.4
20260508125504 46 211 0.0 1.0 0.00 0.00 0.00 73 1013.4
20260508124436 44 120 0.0 0.0 0.00 0.00 0.00 77 1013.8
20260508123417 42 120 0.0 0.0 0.00 0.00 0.00 79 1013.8
20260508122348 42 120 0.0 0.0 0.00 0.00 0.00 79 1013.9
20260508121327 41 120 0.0 0.0 0.00 0.00 0.00 81 1014.0
20260508120337 40 120 0.0 0.0 0.00 0.00 0.00 81 1014.0
20260508115321 40 120 0.0 0.0 0.00 0.00 0.00 82 1013.9
20260508114249 40 120 0.0 0.0 0.00 0.00 0.00 83 1013.9
20260508113310 39 120 0.0 0.0 0.00 0.00 0.00 83 1013.8
20260508112313 39 120 0.0 2.0 0.00 0.00 0.00 84 1013.8
20260508111329 39 123 0.0 0.0 0.00 0.00 0.00 85 1013.7
20260508110307 38 123 0.0 0.0 0.00 0.00 0.00 85 1013.8
20260508105328 38 123 0.0 0.0 0.00 0.00 0.00 85 1013.6
20260508103209 37 123 0.0 0.0 0.00 0.00 0.00 84 1013.5
20260508102158 37 123 0.0 0.0 0.00 0.00 0.00 84 1013.3
20260508094856 37 123 0.0 0.0 0.00 0.00 0.00 83 1013.1
20260508092730 38 123 0.0 0.0 0.00 0.00 0.00 82 1013.2
20260508091725 38 123 0.0 0.0 0.00 0.00 0.00 82 1013.2
20260508090730 38 123 0.0 0.0 0.00 0.00 0.00 81 1013.1
20260508085716 38 123 0.0 0.0 0.00 0.00 0.00 80 1013.1
20260508084729 39 123 0.0 0.0 0.00 0.00 0.00 79 1013.0
20260508083701 39 123 0.0 0.0 0.00 0.00 0.00 79 1012.9
20260508082705 39 123 0.0 0.0 0.00 0.00 0.00 78 1012.8
20260508081725 40 123 0.0 0.0 0.00 0.00 0.00 78 1012.9
20260508075558 41 108 0.0 1.0 0.00 0.00 0.00 77 1012.7